Regional Weather Roundup
Issued by NWS Sioux Falls, SD

Home | Current Version | Previous Version | Text Only | Print | Product List | Glossary Off
Versions: 1 2 3 4 5 6 7 8 9 10 11 12 13 14 15 16 17 18 19 20 21 22 23 24 25 26 27 28 29 30 31 32 33 34 35 36 37 38 39 40 41 42 43 44 45 46 47 48 49 50

000
ASUS43 KFSD 260710
RWRFSD

WEATHER ROUNDUP FOR SE SOUTH DAKOTA/SW MINNESOTA/NW IOWA
NATIONAL WEATHER SERVICE SIOUX FALLS SD
100 AM CST FRI DEC 26 2014

NOTE: "FAIR" INDICATES FEW OR NO CLOUDS BELOW 12,000 FEET WITH NO
SIGNIFICANT WEATHER AND OR OBSTRUCTIONS TO VISIBILITY.


SDZ038>040-050-052>070-260800-
SOUTHEAST SOUTH DAKOTA

CITY           SKY/WX    TMP DP  RH WIND       PRES   REMARKS
CHAMBERLAIN    CLOUDY    25  23  91 N9        29.96S WCI  16
HURON          LGT SNOW  26  23  88 N13       29.95R FOG     WCI  15
MADISON        CLOUDY    27  27 100 N16       29.87R WCI  14
MITCHELL       CLOUDY    28  24  85 N15       29.94R WCI  16
SIOUX FALLS    CLOUDY    29  26  89 N14       29.86R WCI  18
WINNER         CLOUDY    26  23  88 N12       29.95F WCI  16
YANKTON        CLOUDY    30  25  80 N14       29.88R WCI  20
$$

MNZ071-072-080-081-089-090-097-098-260800-
SOUTHWEST MINNESOTA

CITY           SKY/WX    TMP DP  RH WIND       PRES   REMARKS
FAIRMONT       CLOUDY    32  28  86 N10       29.80R WCI  24
JACKSON        CLOUDY    32  32 100 N12       29.81R FOG     WCI  23
LUVERNE        CLOUDY    32  28  86 N13G20    29.84R WCI  22
MARSHALL       CLOUDY    28  25  86 N16       29.88R WCI  17
MONTEVIDEO     CLOUDY    28  28 100 NE15      29.91R WCI  17
PIPESTONE      CLOUDY    28  27  93 NE14      29.83R WCI  17
REDWOOD FALLS  CLOUDY    32  29  88 N9        29.87R WCI  24
TRACY          CLOUDY    30  30  97 N14       29.86R FOG     WCI  20
WINDOM         CLOUDY    30  30 100 N14       29.83R FOG     WCI  20
WORTHINGTON    CLOUDY    30 -17  12 N20       29.82S WCI  18
$$

IAZ001>003-012>014-020>022-031-032-NEZ013-014-SDZ071-260800-
NORTHWEST IOWA

CITY           SKY/WX    TMP DP  RH WIND       PRES   REMARKS
CHEROKEE       CLOUDY    32  32  99 N12       29.78R WCI  23
DENISON        CLEAR     28  28 100 N5        29.73S WCI  23
ESTHERVILLE    CLOUDY    31  30  96 N14       29.79R WCI  21
LE MARS        CLOUDY    34  32  93 N13       29.82R WCI  25
ORANGE CITY    CLOUDY    34  30  86 N10       29.80S FOG     WCI  26
SHELDON        CLOUDY    32  32 100 N14       29.81R FOG     WCI  22
SIOUX CITY     CLOUDY    34  31  88 N13       29.80S WCI  25
SPENCER        CLOUDY    33  30  88 N13       29.79R WCI  24
STORM LAKE     CLEAR     28  28 100 N12       29.77R WCI  18
$$

ABBREVIATIONS USED IN REMARKS
   TC - TEMPERATURE IN CELSIUS
  WCI - WIND CHILL INDEX
   HX - HEAT INDEX
  VSB - VISIBILITY



USA.gov is the U.S. government's official web portal to all federal, state and local government web resources and services.